ha-er-bin , China , ASIA

  • Friday
    November 17

      Cloudy

      3 °F

      No wind

      3~4L 

  • Saturday
    November 18

    Cloudy  Sunny

    16 °F  -4 °F

    Northwest  Northwest

    3~4L    

  • Sunday
    November 19

    Sunny  Sunny

    16 °F  3 °F

    Northwest  Northwest

    3~4L    

  • Monday
    November 20

    Cloudy  Sunny

    23 °F  10 °F

    Southwest  South

    3~4L    

  • Tuesday
    November 21

    Sunny  Snow flurry

    37 °F  16 °F

    West  Southwest

        

  • Wednesday
    November 22

    Cloudy  Sunny

    30 °F  5 °F

    West  Southwest

        

  • Thursday
    November 23

    Sunny  Sunny

    21 °F  10 °F

    Northwest  West

    3~4L    

Date   Weather Temperature Humidity Total_rain Visibility Wind
23:00 Cloudy 15°F 77.8% 0mm 999.9km Northwest  2.8m/s
02:00 Cloudy 7°F 74.7% 0mm 999.9km Northwest  3.5m/s
05:00 Cloudy 4°F 75.6% 0mm 999.9km Northwest  3.3m/s
08:00 Cloudy 6°F 76.5% 0mm 999.9km Northwest  2.8m/s
11:00 Cloudy 15°F 63.3% 0mm 999.9km Northwest  3.4m/s
14:00 Cloudy 15°F 62.3% 0mm 999.9km Northwest  4.2m/s
17:00 Cloudy 15°F 63.3% 0mm 999.9km Northwest  2.9m/s
20:00 Cloudy 10°F 56.5% 0mm 999.9km Northwest  2.3m/s
23:00 Sunny 6°F 77.3% 0mm 999.9km Northwest  2.3m/s
02:00 Sunny -1°F 78.8% 0mm 999.9km Northwest  2.4m/s
05:00 Sunny -4°F 77.4% 0mm 999.9km Northwest  2.6m/s
08:00 Sunny -1°F 72.8% 0mm 999.9km Northwest  2.8m/s
11:00 Sunny 11°F 68.2% 0mm 999.9km Northwest  3.5m/s
14:00 Sunny 15°F 64.7% 0mm 999.9km Northwest  3.9m/s
17:00 Sunny 14°F 60.3% 0mm 999.9km Southwest  2.8m/s
20:00 Sunny 7°F 56.6% 0mm 999.9km Southwest  2.7m/s
23:00 Sunny 6°F 72.6% 0mm 999.9km Southwest  2.7m/s
02:00 Sunny 4°F 74.6% 0mm 999.9km Southwest  2.6m/s
05:00 Sunny 4°F 78.1% 0mm 999.9km Southwest  2.4m/s
08:00 Sunny 10°F 80.2% 0mm 999.9km Northwest  3.1m/s
11:00 Cloudy 18°F 65.7% 0mm 999.9km Northwest  3.7m/s
14:00 Cloudy 23°F 63.1% 0mm 999.9km Northwest  3.8m/s
17:00 Cloudy 17°F 68.8% 0mm 999.9km Southwest  2.9m/s
20:00 Cloudy 15°F 56.8% 0mm 999.9km Southwest  2.4m/s
23:00 Sunny 11°F 83.6% 0mm 999.9km Southwest  3.0m/s
02:00 Sunny 11°F 85.7% 0mm 999.9km Southwest  3.4m/s
05:00 Sunny 12°F 81.3% 0mm 999.9km Southwest  4.0m/s
08:00 Sunny 23°F 77.5% 0mm 999.9km Southwest  5.2m/s
11:00 Sunny 30°F 61.3% 0mm 999.9km Southwest  5.9m/s
14:00 Sunny 37°F 63.5% 0mm 999.9km Southwest  6.3m/s
17:00 Sunny 29°F 64.6% 0mm 999.9km Southwest  5.3m/s
20:00 Sunny 31°F 55.5% 0mm 999.9km Southwest  5.0m/s
23:00 Sleet 29°F 72.6% 0.2mm 999.9km Southwest  4.7m/s
02:00 Sleet 30°F 76.9% 0.2mm 999.9km Northwest  4.0m/s
05:00 Light snow 20°F 77.9% 0.2mm 999.9km Northwest  3.2m/s
08:00 Light snow 16°F 79.2% 0.2mm 999.9km Northwest  2.6m/s
11:00 Cloudy 26°F 71.7% 0mm 999.9km Northwest  8.0m/s
14:00 Cloudy 29°F 70.2% 0mm 999.9km Northwest  4.1m/s
17:00 Cloudy 20°F 69.9% 0mm 999.9km Southwest  3.9m/s
20:00 Cloudy 18°F 66.3% 0mm 999.9km Southwest  2.4m/s
23:00 Sunny 18°F 69.4% 0mm 999.9km Southwest  4.9m/s
02:00 Sunny 12°F 78.2% 0mm 999.9km Southwest  3.1m/s
05:00 Sunny 10°F 74.2% 0mm 999.9km Southwest  3.4m/s
08:00 Sunny 5°F 71% 0mm 999.9km Southwest  3.4m/s
11:00 Sunny 20°F 67.9% 0mm 999.9km Southwest  4.9m/s
14:00 Sunny 21°F 66% 0mm 999.9km Northwest  5.1m/s
17:00 Sunny 18°F 64.1% 0mm 999.9km Northwest  3.0m/s
20:00 Sunny 11°F 62.1% 0mm 999.9km Northwest  2.7m/s
23:00 Sunny 16°F 69.9% 0mm 999.9km Northwest  2.0m/s
02:00 Sunny 13°F 75.6% 0mm 999.9km Northwest  3.1m/s
05:00 Sunny 11°F 75.7% 0mm 999.9km Northwest  1.9m/s